GSAT0202 (GALILEO 6)

Last updated on Nov. 12, 2019, 4:19 a.m. UTC

1 40129U 14050B   19315.82915043 -.00000088  00000-0  00000+0 0  9993
2 40129  50.6203   9.1264 1662884  93.1764 285.9284  1.85520199 35759
UTC
Height (km)
Latitude
Longitude
Inclination
Orbital Period
UTC large
Height (km)
Speed (km/s)
/
Latitude / Longitude
Inclination (degrees)
Orbital Period (minutes)
Azimuth
Elevation
Range (km)
Doppler Factor
iOS Compass Heading
iOS Angle

Next 30 passes for location: Hong Kong

Rise time Rise Azimuth (degrees) Set time Set Azimuth (degrees) Duration Max altitude (degrees)

No matching passes for this satellites